BCS1T LFPG-LYBE

Flight info

Callsign BCS1T
Flight time 1h 46m
Altitude 37000
Route BUBLI DCT LUVAL DCT BEGAR DCT TRA DCT GAMSA DCT GEDSO DCT VEKEN DCT GORPA DCT KUSIB DCT OKSIG DCT SOMUN L5 ENUPU
Aircraft B77L/H-SDE1E2E3FGHIJ2J3J4J5M1RWXY/LB1D1

Departure

Time 2026-05-05 07:02
Airport Charles de Gaulle International Airport (LFPG)

Arrival

Time 2026-05-05 08:49
Airport Belgrade Nikola Tesla Airport (LYBE)
Time Latitude Longitude Altitude Speed Heading
2026-05-05 06:35 48.99985 2.53800 365 ft 0 kts 354°
2026-05-05 06:49 48.99974 2.53802 363 ft 4 kts 354°
2026-05-05 06:50 48.99948 2.53806 362 ft 4 kts 354°
2026-05-05 06:50 48.99922 2.53809 362 ft 4 kts 11°
2026-05-05 06:50 48.99907 2.53800 363 ft 4 kts 45°
2026-05-05 06:50 48.99895 2.53767 365 ft 4 kts 83°
2026-05-05 06:51 48.99894 2.53758 363 ft 1 kts 84°
2026-05-05 06:54 48.99895 2.53764 359 ft 0 kts 84°
2026-05-05 06:58 48.99897 2.53795 365 ft 11 kts 84°
2026-05-05 06:58 48.99905 2.53927 364 ft 13 kts 85°
2026-05-05 06:58 48.99910 2.54032 359 ft 8 kts 86°
2026-05-05 06:59 48.99915 2.54128 367 ft 10 kts 85°
2026-05-05 06:59 48.99921 2.54253 365 ft 13 kts 85°
2026-05-05 06:59 48.99930 2.54401 365 ft 14 kts 84°
2026-05-05 06:59 48.99938 2.54555 360 ft 15 kts 85°
2026-05-05 07:00 48.99947 2.54717 361 ft 11 kts 85°
2026-05-05 07:00 48.99918 2.54803 368 ft 10 kts 152°
2026-05-05 07:00 48.99845 2.54824 367 ft 12 kts 172°
2026-05-05 07:00 48.99761 2.54863 366 ft 13 kts 142°
2026-05-05 07:01 48.99709 2.54979 359 ft 12 kts 117°
2026-05-05 07:01 48.99670 2.55105 367 ft 14 kts 115°
2026-05-05 07:01 48.99627 2.55242 365 ft 14 kts 117°
2026-05-05 07:01 48.99588 2.55359 364 ft 11 kts 112°
2026-05-05 07:02 48.99579 2.55453 363 ft 8 kts 84°
2026-05-05 07:02 48.99600 2.55829 365 ft 79 kts 85°
2026-05-05 07:02 48.99676 2.57319 486 ft 188 kts 85°
2026-05-05 07:02 48.99788 2.59390 1707 ft 199 kts 83°
2026-05-05 07:03 48.99888 2.61493 3275 ft 200 kts 85°
2026-05-05 07:03 48.99942 2.63607 4823 ft 204 kts 86°
2026-05-05 07:03 49.00019 2.65865 5877 ft 230 kts 85°
2026-05-05 07:03 49.00146 2.68406 6412 ft 248 kts 83°
2026-05-05 07:04 49.00334 2.71072 7762 ft 258 kts 83°
2026-05-05 07:04 49.00515 2.73844 9208 ft 267 kts 83°
2026-05-05 07:04 49.00681 2.76704 10611 ft 276 kts 83°
2026-05-05 07:04 49.00696 2.79734 11552 ft 302 kts 94°
2026-05-05 07:05 49.00342 2.83105 12048 ft 343 kts 99°
2026-05-05 07:05 48.99862 2.86863 12702 ft 373 kts 99°
2026-05-05 07:05 48.99400 2.90756 13952 ft 382 kts 98°
2026-05-05 07:05 48.98951 2.94828 15304 ft 389 kts 97°
2026-05-05 07:06 48.98396 2.98882 16319 ft 398 kts 106°
2026-05-05 07:06 48.97305 3.02796 17276 ft 413 kts 114°
2026-05-05 07:06 48.96017 3.06769 18356 ft 423 kts 115°
2026-05-05 07:06 48.94703 3.10821 19430 ft 432 kts 115°
2026-05-05 07:07 48.93378 3.14987 20419 ft 442 kts 114°
2026-05-05 07:07 48.92048 3.19263 21360 ft 453 kts 114°
2026-05-05 07:07 48.90699 3.23661 22233 ft 463 kts 113°
2026-05-05 07:07 48.89336 3.28134 23128 ft 472 kts 113°
2026-05-05 07:08 48.87946 3.32702 23991 ft 480 kts 113°
2026-05-05 07:08 48.86531 3.37338 24826 ft 489 kts 114°
2026-05-05 07:08 48.85085 3.42062 25617 ft 497 kts 114°
2026-05-05 07:08 48.83611 3.46868 26390 ft 505 kts 114°
2026-05-05 07:09 48.82113 3.51741 27150 ft 513 kts 113°
2026-05-05 07:09 48.80850 3.56802 27863 ft 516 kts 101°
2026-05-05 07:09 48.80362 3.62190 28483 ft 517 kts 90°
2026-05-05 07:09 48.80125 3.67666 29146 ft 524 kts 89°
2026-05-05 07:10 48.79892 3.73213 29806 ft 530 kts 89°
2026-05-05 07:10 48.79612 3.78802 30427 ft 535 kts 90°
2026-05-05 07:10 48.79276 3.84450 31118 ft 538 kts 91°
2026-05-05 07:10 48.78902 3.90080 31976 ft 535 kts 92°
2026-05-05 07:11 48.78516 3.95664 32915 ft 530 kts 92°
2026-05-05 07:11 48.78136 4.01197 33805 ft 525 kts 92°
2026-05-05 07:11 48.77764 4.06677 34631 ft 521 kts 92°
2026-05-05 07:11 48.77336 4.12116 35368 ft 519 kts 98°
2026-05-05 07:12 48.76237 4.17337 35953 ft 524 kts 116°
2026-05-05 07:12 48.74262 4.21944 36541 ft 521 kts 127°
2026-05-05 07:12 48.72085 4.26338 37064 ft 518 kts 127°
2026-05-05 07:13 48.67836 4.34995 37153 ft 508 kts 126°
2026-05-05 07:13 48.63688 4.43696 37156 ft 512 kts 126°
2026-05-05 07:14 48.59571 4.52416 37153 ft 514 kts 126°
2026-05-05 07:14 48.55412 4.61204 37155 ft 514 kts 126°
2026-05-05 07:15 48.51250 4.69954 37160 ft 514 kts 126°
2026-05-05 07:15 48.47073 4.78698 37162 ft 514 kts 126°
2026-05-05 07:16 48.42894 4.87418 37163 ft 514 kts 126°
2026-05-05 07:16 48.38705 4.96133 37160 ft 514 kts 126°
2026-05-05 07:17 48.34509 5.04846 37128 ft 514 kts 126°
2026-05-05 07:17 48.30616 5.13836 37101 ft 513 kts 116°
2026-05-05 07:18 48.28042 5.23781 37075 ft 510 kts 102°
2026-05-05 07:18 48.26511 5.34099 37072 ft 509 kts 99°
2026-05-05 07:19 48.25030 5.44504 37070 ft 510 kts 100°
2026-05-05 07:19 48.23495 5.54917 37056 ft 511 kts 100°
2026-05-05 07:20 48.21920 5.65329 37071 ft 512 kts 100°
2026-05-05 07:20 48.20333 5.75721 37085 ft 512 kts 101°
2026-05-05 07:21 48.18732 5.86141 37109 ft 513 kts 101°
2026-05-05 07:21 48.17123 5.96559 37113 ft 513 kts 101°
2026-05-05 07:22 48.15500 6.06997 37119 ft 514 kts 101°
2026-05-05 07:22 48.13866 6.17429 37126 ft 514 kts 101°
2026-05-05 07:23 48.12237 6.27782 37122 ft 514 kts 101°
2026-05-05 07:23 48.10587 6.38203 37115 ft 514 kts 101°
2026-05-05 07:24 48.08929 6.48598 37108 ft 513 kts 101°
2026-05-05 07:24 48.07267 6.58954 37108 ft 512 kts 101°
2026-05-05 07:25 48.05597 6.69296 37103 ft 512 kts 101°
2026-05-05 07:25 48.03917 6.79632 37108 ft 511 kts 102°
2026-05-05 07:26 48.02232 6.89947 37119 ft 511 kts 102°
2026-05-05 07:26 48.00538 7.00247 37115 ft 510 kts 102°
2026-05-05 07:27 47.98839 7.10519 37119 ft 511 kts 102°
2026-05-05 07:27 47.97123 7.20822 37121 ft 512 kts 102°
2026-05-05 07:28 47.95397 7.31135 37129 ft 513 kts 102°
2026-05-05 07:28 47.93671 7.41379 37134 ft 513 kts 102°
2026-05-05 07:29 47.91914 7.51763 37119 ft 513 kts 103°
2026-05-05 07:29 47.89969 7.62006 37117 ft 514 kts 109°
2026-05-05 07:30 47.87449 7.71909 37120 ft 515 kts 110°
2026-05-05 07:30 47.83595 7.86853 37120 ft 515 kts 110°
2026-05-05 07:31 47.81057 7.96826 37110 ft 514 kts 110°
2026-05-05 07:31 47.78525 8.06750 37111 ft 514 kts 110°
2026-05-05 07:32 47.75985 8.16672 37113 ft 513 kts 110°
2026-05-05 07:32 47.73431 8.26580 37117 ft 513 kts 110°
2026-05-05 07:33 47.70873 8.36485 37113 ft 513 kts 110°
2026-05-05 07:33 47.68320 8.46375 37107 ft 513 kts 109°
2026-05-05 07:34 47.66016 8.56394 37104 ft 513 kts 107°
2026-05-05 07:34 47.64176 8.64773 37101 ft 513 kts 107°
2026-05-05 07:35 47.61926 8.74814 37103 ft 513 kts 108°
2026-05-05 07:35 47.59632 8.84837 37100 ft 513 kts 108°
2026-05-05 07:36 47.57323 8.94836 37106 ft 512 kts 108°
2026-05-05 07:36 47.55009 9.04808 37103 ft 512 kts 108°
2026-05-05 07:37 47.52691 9.14774 37105 ft 512 kts 108°
2026-05-05 07:37 47.50366 9.24728 37102 ft 512 kts 108°
2026-05-05 07:38 47.48030 9.34682 37102 ft 512 kts 108°
2026-05-05 07:38 47.45690 9.44604 37103 ft 511 kts 108°
2026-05-05 07:39 47.43343 9.54513 37099 ft 512 kts 108°
2026-05-05 07:39 47.41025 9.64371 37102 ft 510 kts 106°
2026-05-05 07:40 47.39410 9.74535 37106 ft 509 kts 99°
2026-05-05 07:40 47.38050 9.84794 37105 ft 509 kts 99°
2026-05-05 07:41 47.36661 9.95059 37098 ft 510 kts 100°
2026-05-05 07:41 47.35232 10.05305 37080 ft 510 kts 100°
2026-05-05 07:42 47.33785 10.15544 37075 ft 510 kts 100°
2026-05-05 07:42 47.32331 10.25768 37071 ft 510 kts 101°
2026-05-05 07:43 47.30875 10.35933 37064 ft 510 kts 101°
2026-05-05 07:43 47.29401 10.46168 37056 ft 511 kts 101°
2026-05-05 07:44 47.27915 10.56407 37046 ft 511 kts 101°
2026-05-05 07:44 47.26420 10.66636 37061 ft 511 kts 101°
2026-05-05 07:45 47.24918 10.76859 37055 ft 511 kts 101°
2026-05-05 07:45 47.23407 10.87078 37050 ft 511 kts 101°
2026-05-05 07:46 47.21883 10.97302 37057 ft 512 kts 101°
2026-05-05 07:46 47.20353 11.07521 37052 ft 511 kts 101°
2026-05-05 07:47 47.18813 11.17734 37068 ft 511 kts 101°
2026-05-05 07:47 47.17264 11.27929 37068 ft 511 kts 101°
2026-05-05 07:48 47.15705 11.38129 37075 ft 511 kts 102°
2026-05-05 07:48 47.14137 11.48318 37076 ft 512 kts 102°
2026-05-05 07:49 47.12561 11.58513 37071 ft 512 kts 102°
2026-05-05 07:49 47.10971 11.68720 37060 ft 513 kts 102°
2026-05-05 07:50 47.09372 11.78928 37049 ft 513 kts 102°
2026-05-05 07:50 47.07415 11.88989 37058 ft 513 kts 110°
2026-05-05 07:51 47.04376 11.98452 37053 ft 513 kts 117°
2026-05-05 07:51 47.01172 12.07786 37055 ft 512 kts 117°
2026-05-05 07:52 46.97995 12.17135 37039 ft 514 kts 116°
2026-05-05 07:52 46.94827 12.26527 37033 ft 515 kts 116°
2026-05-05 07:53 46.91657 12.35909 37024 ft 515 kts 116°
2026-05-05 07:53 46.88467 12.45302 37029 ft 515 kts 116°
2026-05-05 07:54 46.85273 12.54671 37033 ft 515 kts 117°
2026-05-05 07:54 46.82070 12.64033 37024 ft 515 kts 117°
2026-05-05 07:55 46.78863 12.73376 37025 ft 514 kts 117°
2026-05-05 07:55 46.75666 12.82652 37038 ft 515 kts 117°
2026-05-05 07:56 46.72417 12.92054 37043 ft 516 kts 117°
2026-05-05 07:56 46.69200 13.01325 37035 ft 517 kts 117°
2026-05-05 07:57 46.65942 13.10673 37013 ft 518 kts 117°
2026-05-05 07:57 46.62679 13.20014 37016 ft 518 kts 117°
2026-05-05 07:58 46.59406 13.29353 37021 ft 518 kts 117°
2026-05-05 07:58 46.56126 13.38681 37017 ft 519 kts 118°
2026-05-05 07:59 46.52646 13.47888 37013 ft 519 kts 120°
2026-05-05 07:59 46.49043 13.56971 37021 ft 519 kts 121°
2026-05-05 08:00 46.45444 13.66076 37029 ft 520 kts 120°
2026-05-05 08:00 46.41868 13.75206 37035 ft 521 kts 120°
2026-05-05 08:01 46.38292 13.84333 37033 ft 522 kts 120°
2026-05-05 08:01 46.34690 13.93475 37027 ft 522 kts 120°
2026-05-05 08:02 46.31084 14.02617 37053 ft 523 kts 121°
2026-05-05 08:02 46.27465 14.11744 37050 ft 523 kts 121°
2026-05-05 08:03 46.23831 14.20879 37033 ft 523 kts 121°
2026-05-05 08:03 46.20209 14.29970 37052 ft 523 kts 121°
2026-05-05 08:04 46.16568 14.39062 37040 ft 523 kts 121°
2026-05-05 08:04 46.12922 14.48131 37045 ft 523 kts 121°
2026-05-05 08:05 46.09297 14.57129 37043 ft 522 kts 121°
2026-05-05 08:05 46.05626 14.66207 37048 ft 521 kts 121°
2026-05-05 08:06 46.01996 14.75163 37046 ft 520 kts 121°
2026-05-05 08:06 45.98349 14.84130 37040 ft 519 kts 121°
2026-05-05 08:07 45.94683 14.93101 37047 ft 521 kts 121°
2026-05-05 08:07 45.91013 15.02063 37043 ft 521 kts 122°
2026-05-05 08:08 45.87326 15.11036 37052 ft 521 kts 122°
2026-05-05 08:08 45.83643 15.19975 37049 ft 521 kts 122°
2026-05-05 08:09 45.79940 15.28928 37048 ft 520 kts 122°
2026-05-05 08:09 45.76096 15.37694 37048 ft 519 kts 128°
2026-05-05 08:10 45.71641 15.45789 37059 ft 517 kts 131°
2026-05-05 08:10 45.67135 15.53828 37057 ft 517 kts 130°
2026-05-05 08:11 45.62659 15.61883 37054 ft 518 kts 130°
2026-05-05 08:11 45.58223 15.69895 37059 ft 516 kts 130°
2026-05-05 08:12 45.53760 15.77947 37067 ft 518 kts 130°
2026-05-05 08:12 45.49288 15.85990 37069 ft 517 kts 130°
2026-05-05 08:13 45.44805 15.94027 37063 ft 518 kts 130°
2026-05-05 08:13 45.40308 16.02057 37063 ft 518 kts 130°
2026-05-05 08:14 45.35808 16.10069 37059 ft 518 kts 130°
2026-05-05 08:14 45.31311 16.18054 37065 ft 517 kts 130°
2026-05-05 08:15 45.26808 16.26032 37066 ft 517 kts 131°
2026-05-05 08:15 45.22309 16.33974 37065 ft 517 kts 131°
2026-05-05 08:16 45.17802 16.41926 37059 ft 516 kts 131°
2026-05-05 08:16 45.13291 16.49830 37057 ft 516 kts 131°
2026-05-05 08:17 45.08749 16.57626 37053 ft 516 kts 132°
2026-05-05 08:17 45.04179 16.65438 37052 ft 515 kts 131°
2026-05-05 08:18 45.00358 16.71969 37052 ft 515 kts 131°
2026-05-05 08:18 44.95049 16.81030 37043 ft 515 kts 131°
2026-05-05 08:19 44.90464 16.88830 37046 ft 515 kts 132°
2026-05-05 08:19 44.86699 16.95345 37043 ft 516 kts 127°
2026-05-05 08:20 44.83473 17.04377 37050 ft 518 kts 108°
2026-05-05 08:20 44.82034 17.14280 37049 ft 517 kts 97°
2026-05-05 08:21 44.81069 17.24312 37044 ft 516 kts 97°
2026-05-05 08:21 44.80059 17.34326 37044 ft 516 kts 97°
2026-05-05 08:22 44.78987 17.44315 37044 ft 516 kts 98°
2026-05-05 08:22 44.77886 17.54303 37053 ft 516 kts 98°
2026-05-05 08:23 44.76782 17.64274 37047 ft 516 kts 98°
2026-05-05 08:23 44.75674 17.74235 37042 ft 515 kts 98°
2026-05-05 08:24 44.74560 17.84190 36692 ft 518 kts 98°
2026-05-05 08:24 44.73996 17.89182 36229 ft 512 kts 98°
2026-05-05 08:24 44.73438 17.94081 35741 ft 504 kts 98°
2026-05-05 08:25 44.72886 17.98917 35229 ft 498 kts 98°
2026-05-05 08:25 44.72340 18.03704 34733 ft 493 kts 98°
2026-05-05 08:25 44.71799 18.08431 34230 ft 488 kts 98°
2026-05-05 08:25 44.71258 18.13128 33734 ft 483 kts 98°
2026-05-05 08:26 44.70722 18.17766 33246 ft 479 kts 98°
2026-05-05 08:26 44.70191 18.22355 32763 ft 475 kts 98°
2026-05-05 08:26 44.69659 18.26921 32275 ft 471 kts 98°
2026-05-05 08:26 44.69138 18.31390 31804 ft 469 kts 98°
2026-05-05 08:27 44.68606 18.35937 31320 ft 473 kts 98°
2026-05-05 08:27 44.68066 18.40541 30842 ft 483 kts 98°
2026-05-05 08:27 44.67516 18.45213 30332 ft 485 kts 98°
2026-05-05 08:27 44.66963 18.49879 29809 ft 481 kts 98°
2026-05-05 08:28 44.66415 18.54483 29296 ft 476 kts 98°
2026-05-05 08:28 44.65869 18.59052 28775 ft 472 kts 99°
2026-05-05 08:28 44.65326 18.63582 28292 ft 467 kts 99°
2026-05-05 08:28 44.64787 18.68062 27780 ft 463 kts 99°
2026-05-05 08:29 44.64253 18.72492 27288 ft 459 kts 99°
2026-05-05 08:29 44.63722 18.76886 26807 ft 455 kts 99°
2026-05-05 08:29 44.63193 18.81251 26321 ft 451 kts 99°
2026-05-05 08:30 44.62143 18.89877 25352 ft 444 kts 99°
2026-05-05 08:30 44.61621 18.94126 24893 ft 441 kts 99°
2026-05-05 08:30 44.61103 18.98346 24434 ft 438 kts 99°
2026-05-05 08:30 44.60585 19.02545 23973 ft 435 kts 99°
2026-05-05 08:31 44.60090 19.06705 23504 ft 431 kts 97°
2026-05-05 08:31 44.59860 19.10897 23057 ft 428 kts 90°
2026-05-05 08:31 44.59923 19.15041 22595 ft 423 kts 83°
2026-05-05 08:31 44.60266 19.19115 22156 ft 419 kts 80°
2026-05-05 08:32 44.60641 19.23147 21697 ft 415 kts 80°
2026-05-05 08:32 44.60987 19.27157 21250 ft 413 kts 81°
2026-05-05 08:32 44.61304 19.31157 20792 ft 410 kts 81°
2026-05-05 08:32 44.61612 19.35126 20357 ft 408 kts 81°
2026-05-05 08:33 44.61904 19.39074 19908 ft 405 kts 82°
2026-05-05 08:33 44.62159 19.42992 19465 ft 403 kts 83°
2026-05-05 08:33 44.62400 19.46904 19017 ft 400 kts 83°
2026-05-05 08:33 44.62637 19.50786 18578 ft 398 kts 83°
2026-05-05 08:34 44.62875 19.54642 18135 ft 395 kts 83°
2026-05-05 08:34 44.63113 19.58471 17695 ft 392 kts 82°
2026-05-05 08:34 44.63349 19.62270 17256 ft 390 kts 82°
2026-05-05 08:34 44.63584 19.66050 16820 ft 387 kts 83°
2026-05-05 08:35 44.63815 19.69796 16341 ft 385 kts 83°
2026-05-05 08:35 44.64046 19.73546 15797 ft 385 kts 83°
2026-05-05 08:35 44.64272 19.77225 15376 ft 381 kts 83°
2026-05-05 08:35 44.64496 19.80919 14966 ft 377 kts 83°
2026-05-05 08:36 44.64717 19.84565 14560 ft 373 kts 83°
2026-05-05 08:36 44.64935 19.88182 14097 ft 370 kts 83°
2026-05-05 08:36 44.65150 19.91766 13688 ft 366 kts 83°
2026-05-05 08:36 44.65361 19.95303 13297 ft 361 kts 83°
2026-05-05 08:37 44.65569 19.98787 12917 ft 356 kts 83°
2026-05-05 08:37 44.65773 20.02236 12543 ft 351 kts 83°
2026-05-05 08:37 44.65972 20.05629 12181 ft 346 kts 84°
2026-05-05 08:37 44.66180 20.08962 11800 ft 336 kts 80°
2026-05-05 08:38 44.66883 20.11961 11524 ft 317 kts 56°
2026-05-05 08:38 44.68297 20.14188 11330 ft 298 kts 33°
2026-05-05 08:38 44.70047 20.15577 11111 ft 283 kts 19°
2026-05-05 08:38 44.71897 20.16369 10773 ft 273 kts
2026-05-05 08:39 44.73767 20.16389 10388 ft 267 kts 354°
2026-05-05 08:39 44.75572 20.16045 9860 ft 261 kts 339°
2026-05-05 08:39 44.77099 20.14682 9334 ft 262 kts 316°
2026-05-05 08:39 44.78230 20.12671 8862 ft 263 kts 304°
2026-05-05 08:40 44.79187 20.10475 8404 ft 263 kts 302°
2026-05-05 08:40 44.80130 20.08267 7990 ft 262 kts 302°
2026-05-05 08:40 44.81070 20.06091 7591 ft 259 kts 303°
2026-05-05 08:40 44.82007 20.03937 7188 ft 257 kts 303°
2026-05-05 08:41 44.82941 20.01801 6764 ft 256 kts 303°
2026-05-05 08:41 44.83870 19.99682 6403 ft 251 kts 302°
2026-05-05 08:41 44.84779 19.97613 6085 ft 245 kts 303°
2026-05-05 08:41 44.85677 19.95616 5811 ft 235 kts 308°
2026-05-05 08:42 44.86944 19.94234 5555 ft 242 kts 339°
2026-05-05 08:42 44.88637 19.93975 5280 ft 251 kts
2026-05-05 08:42 44.90248 19.94882 5079 ft 245 kts 31°
2026-05-05 08:42 44.91640 19.96136 4965 ft 231 kts 31°
2026-05-05 08:43 44.92969 19.97303 4855 ft 221 kts 30°
2026-05-05 08:43 44.94142 19.98642 4749 ft 218 kts 53°
2026-05-05 08:43 44.94636 20.00682 4591 ft 229 kts 86°
2026-05-05 08:43 44.94246 20.02877 4338 ft 236 kts 116°
2026-05-05 08:44 44.93418 20.04844 4100 ft 230 kts 121°
2026-05-05 08:44 44.92578 20.06722 3943 ft 225 kts 121°
2026-05-05 08:44 44.91755 20.08567 3638 ft 219 kts 121°
2026-05-05 08:44 44.90953 20.10372 3366 ft 215 kts 121°
2026-05-05 08:45 44.90178 20.12121 3109 ft 204 kts 121°
2026-05-05 08:45 44.89449 20.13766 2825 ft 191 kts 121°
2026-05-05 08:45 44.88776 20.15285 2573 ft 176 kts 121°
2026-05-05 08:45 44.88138 20.16727 2369 ft 173 kts 121°
2026-05-05 08:46 44.87508 20.18150 2151 ft 169 kts 121°
2026-05-05 08:46 44.86914 20.19493 1923 ft 158 kts 121°
2026-05-05 08:46 44.86337 20.20795 1704 ft 152 kts 121°
2026-05-05 08:46 44.85780 20.22052 1514 ft 147 kts 122°
2026-05-05 08:47 44.85262 20.23214 1309 ft 139 kts 119°
2026-05-05 08:47 44.84713 20.24456 1138 ft 154 kts 118°
2026-05-05 08:47 44.84158 20.25708 939 ft 151 kts 118°
2026-05-05 08:47 44.83606 20.26947 722 ft 147 kts 120°
2026-05-05 08:48 44.83062 20.28166 542 ft 147 kts 120°
2026-05-05 08:48 44.82530 20.29363 370 ft 139 kts 119°
2026-05-05 08:48 44.82065 20.30443 312 ft 116 kts 122°
2026-05-05 08:48 44.81738 20.31170 312 ft 54 kts 123°
2026-05-05 08:49 44.81561 20.31561 312 ft 50 kts 122°
2026-05-05 08:49 44.81369 20.31991 315 ft 39 kts 123°
2026-05-05 08:49 44.81257 20.32227 314 ft 17 kts 123°
2026-05-05 08:49 44.81147 20.32309 312 ft 15 kts 178°
2026-05-05 08:50 44.81050 20.32282 312 ft 15 kts 200°
2026-05-05 08:50 44.80993 20.32167 313 ft 15 kts 264°
2026-05-05 08:50 44.81034 20.32029 310 ft 16 kts 302°
2026-05-05 08:50 44.81097 20.31887 312 ft 18 kts 302°
2026-05-05 08:51 44.81169 20.31726 313 ft 20 kts 302°
2026-05-05 08:51 44.81250 20.31549 312 ft 23 kts 303°
2026-05-05 08:51 44.81340 20.31354 313 ft 25 kts 303°
2026-05-05 08:51 44.81421 20.31151 311 ft 24 kts 302°
2026-05-05 08:52 44.81492 20.30995 313 ft 13 kts 302°
2026-05-05 08:52 44.81545 20.30875 313 ft 16 kts 301°
2026-05-05 08:52 44.81605 20.30737 313 ft 18 kts 302°
2026-05-05 08:52 44.81675 20.30581 314 ft 20 kts 302°
2026-05-05 08:53 44.81750 20.30417 312 ft 19 kts 303°
2026-05-05 08:53 44.81815 20.30273 314 ft 18 kts 302°
2026-05-05 08:53 44.81882 20.30117 313 ft 19 kts 301°
2026-05-05 08:53 44.81954 20.29953 314 ft 19 kts 302°
2026-05-05 08:54 44.82019 20.29806 312 ft 16 kts 302°
2026-05-05 08:54 44.82063 20.29709 312 ft 11 kts 302°
2026-05-05 08:54 44.82056 20.29610 315 ft 11 kts 220°
2026-05-05 08:54 44.81987 20.29546 311 ft 12 kts 213°
2026-05-05 08:55 44.81909 20.29476 313 ft 14 kts 212°
2026-05-05 08:55 44.81827 20.29405 313 ft 13 kts 211°
2026-05-05 08:55 44.81801 20.29347 310 ft 7 kts 282°
2026-05-05 08:55 44.81797 20.29268 310 ft 9 kts 237°
2026-05-05 08:56 44.81737 20.29208 313 ft 12 kts 210°
2026-05-05 08:56 44.81675 20.29151 311 ft 5 kts 232°
2026-05-05 08:56 44.81681 20.29103 311 ft 2 kts 304°
2026-05-05 08:56 44.81689 20.29087 311 ft 1 kts 304°
2026-05-05 08:57 44.81695 20.29075 310 ft 1 kts 303°
2026-05-05 08:57 44.81696 20.29072 311 ft 0 kts 303°